Вернуться в каталог

STARLINK-33953

АктивенСвязьVLEO
NORAD 64028·PAYLOAD·🇺🇸 United States

Запущен May 16, 2025 с Vandenberg Space Force Base

Loading…

Ближайшие Пролёты (ближайшие 24 часа)

TLE

СвежийSource: CelesTrak SupGP

Эпоха: Sep 14, 2026, 20:37 UTC

1 64028C 25102G   26257.85951389 -.00022643  00000+0 -78776-3 0  2573
2 64028  70.0008 355.9269 0003354 275.3622 209.5685 15.29586920    11

Отслеживайте STARLINK-33953 в реальном времени с AllMySat

Download on the App Store